[[{"header":{"parameterUnit":"m.s-1","parameterCategory":1,"la1":30.2991,"la2":30.254,"lo1":-89.0895,"lo2":-89.0444,"dy":0.0017,"dx":0.0017,"nx":28,"ny":28,"refTime":"2024-06-30T09:00:00:Z","depth":0,"parameterNumber":2,"parameterNumberName":"U-component_of_WINDS"},"data":[0,0,0,0,0,0,0,0,0,0,0,0,0,0,0,0,0,0,0,0,0,0,0,0,0,0,0,0,0,0,0,0,0,0,0,0,0,0,0,0,0,0,0,0,0,0,0,0,0,0,0,0,0,0,0,0,0,0,3.3517,3.3518,0,3.3662,3.3664,3.3665,3.3633,3.3631,3.3628,3.3625,3.3776,3.3782,3.3789,0,0,0,0,0,0,0,0,0,0,0,0,0,3.3212,3.3218,3.3516,3.3518,3.352,3.3662,3.3664,3.3666,3.3634,3.363,3.3627,3.3624,3.3774,3.3782,3.3789,0,0,0,0,0,0,0,0,0,0,0,0,0,3.3349,3.3219,3.3516,3.3521,3.3523,3.3661,3.3664,3.3666,3.3635,3.363,3.3626,3.3622,3.3771,3.3781,3.3791,3.3933,0,0,3.3821,3.3825,0,0,0,0,0,0,0,0,3.3342,3.3361,3.3519,3.3521,3.3523,3.3625,3.3611,3.3756,3.3636,3.3592,3.3625,3.362,3.3729,3.3742,3.3779,3.394,3.3947,3.3821,3.3827,3.3832,3.3834,0,0,0,0,0,0,0,3.3332,3.3354,3.3574,3.3521,3.3524,3.3516,3.3531,3.3639,3.3682,3.3596,3.3594,3.3611,3.373,3.3769,3.3782,3.3949,3.3821,3.383,3.3836,3.384,3.4232,3.4237,0,0,0,0,0,0,3.332,3.3346,3.3569,3.3578,3.3421,3.3525,3.3542,3.3597,3.3681,3.369,3.3615,3.3609,3.3754,3.377,3.3787,3.3957,3.3832,3.3841,3.3846,3.4228,3.4233,3.4238,0,0,0,0,0,0,3.3314,3.3341,3.3564,3.3462,3.349,3.3535,3.3597,3.3602,3.3641,3.3695,3.3703,3.3647,3.3752,3.3773,3.3896,3.3962,3.3845,3.3854,3.4223,3.423,3.4236,3.4301,0,0,0,0,0,0,3.3305,3.3338,3.3393,3.3463,3.3495,3.367,3.3601,3.3608,3.3658,3.3652,3.3727,3.3736,3.375,3.3882,3.3906,3.3974,3.3862,3.4217,3.4226,3.4234,3.4293,3.4309,3.4323,0,0,0,0,0,3.3295,3.3406,3.3396,3.3423,3.3564,3.3674,3.3693,3.3706,3.3663,3.3718,3.3753,3.3733,3.3952,3.3895,3.3922,3.3993,3.4213,3.4223,3.4233,3.4286,3.4306,3.4322,0,0,0,0,0,0,3.3344,3.3416,3.3405,3.3543,3.3603,3.3669,3.3739,3.3727,3.3801,3.3792,3.3807,3.3824,3.3949,3.3984,3.3919,3.4135,3.4076,3.4092,3.4107,3.4126,3.4141,3.4129,3.387,0,0,0,0,0,3.337,3.3453,3.3512,3.3628,3.3658,3.3694,3.3742,3.3747,3.381,3.3835,3.3879,3.3941,3.4023,3.4077,3.4156,3.4298,3.4313,3.4361,3.4376,3.4388,3.4401,3.4476,3.4498,3.4272,3.4272,3.4272,0,0,3.3427,3.3476,3.3528,3.3639,3.3686,3.3771,3.3715,3.3808,3.3871,3.385,3.3967,3.4002,3.4072,3.4205,3.4265,3.4237,3.4467,3.4401,3.441,3.4417,3.4489,3.451,3.4529,3.4279,3.4278,3.4276,0,0,3.3572,3.3619,3.3719,3.3767,3.3838,3.3861,3.3885,3.3953,3.3974,3.4093,3.4078,3.4154,3.4296,3.4345,3.4389,3.4552,3.4536,3.4578,3.4655,3.4728,3.4746,3.4762,3.4818,3.4838,3.4591,3.4591,3.4591,0,3.3633,3.376,3.3773,3.3867,3.3915,3.3899,3.4,3.4046,3.414,3.4174,3.4142,3.4318,3.4364,3.4507,3.4546,3.4584,3.4611,3.4568,3.4742,3.4758,3.4773,3.4827,3.4848,3.4596,3.4595,3.4595,3.4594,0,3.3831,3.3919,3.3992,3.4081,3.4138,3.4236,3.4263,3.4319,3.432,3.4345,3.4465,3.452,3.4609,3.4644,3.4646,3.4787,3.4767,3.4739,3.4679,3.4799,3.4849,3.487,3.4602,3.46,3.4599,3.4598,0,0,3.4011,3.4105,3.4131,3.417,3.4247,3.4316,3.4412,3.4498,3.4545,3.4611,3.469,3.481,3.4784,3.4834,3.4841,3.4906,3.5029,3.487,3.4872,3.4895,3.5185,3.5204,3.5228,3.502,3.5024,3.5027,3.5178,0,3.4162,3.433,3.4343,3.4495,3.4576,3.4561,3.4645,3.4701,3.4727,3.48,3.483,3.4913,3.4874,3.4903,3.4967,3.5,3.5087,3.499,3.5093,3.5097,3.5073,3.5254,3.5276,3.5416,3.5198,3.5202,3.5204,0,3.436,3.4429,3.4588,3.4652,3.4686,3.4761,3.4839,3.491,3.4972,3.4987,3.5042,3.504,3.5139,3.5077,3.5212,3.5146,3.5189,3.5212,3.5218,3.5226,3.5156,3.5266,3.5461,3.5481,3.5236,3.5233,3.5231,0,3.4472,3.4606,3.4717,3.4752,3.483,3.4882,3.4917,3.4976,3.5026,3.5095,3.5127,3.5207,3.5251,3.5313,3.5332,3.5286,3.5466,3.5407,3.548,3.5479,3.5517,3.5514,3.572,3.5549,3.5548,3.5548,3.5547,0,3.4637,3.4735,3.4768,3.4837,3.4945,3.496,3.5067,3.5099,3.5151,3.5226,3.5219,3.5289,3.5312,3.5385,3.5402,3.551,3.553,3.5544,3.5547,3.5543,3.5541,3.557,3.556,3.5553,3.5552,3.5551,3.555,0,3.4781,3.4807,3.4928,3.4991,3.5009,3.5086,3.514,3.5206,3.523,3.5324,3.5347,3.5387,3.5473,3.5499,3.5604,3.5615,3.574,3.5736,3.5718,3.5718,3.5788,3.5781,3.6018,3.6049,3.586,3.5862,3.5864,0,3.4883,3.4958,3.5028,3.5077,3.5113,3.5193,3.5243,3.526,3.5313,3.5389,3.5446,3.5531,3.5599,3.5738,3.5776,3.5855,3.5851,3.5929,3.5863,3.5856,3.5849,3.5843,3.585,3.5941,3.5943,3.5944,3.5946,0,3.5062,3.5071,3.5144,3.5221,3.5281,3.5342,3.5402,3.5442,3.5468,3.5528,3.5615,3.5668,3.5774,3.5858,3.5938,3.5974,3.5964,3.5966,3.5987,3.5983,3.5969,3.5975,3.575,3.596,3.5959,3.5958,3.5957,3.5956,3.5187,3.5251,3.531,3.5391,3.5437,3.5492,3.5556,3.5588,3.5661,3.5748,3.5754,3.5848,3.5908,3.6014,3.6054,3.6128,3.6105,3.6136,3.6143,3.615,3.6154,3.5959,3.6143,3.6143,3.6142,3.6142,3.6142,0,3.5363,3.54,3.5474,3.5556,3.5619,3.5604,3.5668,3.5722,3.5805,3.5861,3.5928,3.6028,3.6109,3.6153,3.6233,3.6284,3.6281,3.6304,3.6299,3.6307,3.6171,3.6144,3.6305,3.6305,3.6305,3.6304,3.6304,3.6304,3.5462,3.5569,3.5585,3.5715,3.5751,3.5842,3.588,3.5931,3.5975,3.6086,3.6153,3.6181,3.6232,3.6316,3.6389,3.64,3.6429,3.6454,3.6462,3.6334,3.6317,3.6301,3.6276,3.6461,3.6461,3.6592,3.6593,3.6594]},{"header":{"parameterUnit":"m.s-1","parameterCategory":1,"la1":30.2991,"la2":30.254,"lo1":-89.0895,"lo2":-89.0444,"dy":0.0017,"dx":0.0017,"nx":28,"ny":28,"refTime":"2024-06-30T09:00:00:Z","depth":0,"parameterNumber":3,"parameterNumberName":"V-component_of_WINDS"},"data":[0,0,0,0,0,0,0,0,0,0,0,0,0,0,0,0,0,0,0,0,0,0,0,0,0,0,0,0,0,0,0,0,0,0,0,0,0,0,0,0,0,0,0,0,0,0,0,0,0,0,0,0,0,0,0,0,0,0,-0.0264,-0.0263,0,-0.0195,-0.0194,-0.0193,-0.0183,-0.0184,-0.0184,-0.0185,-0.0111,-0.0108,-0.0106,0,0,0,0,0,0,0,0,0,0,0,0,0,-0.0384,-0.0382,-0.0264,-0.0263,-0.0262,-0.0195,-0.0194,-0.0193,-0.0183,-0.0184,-0.0185,-0.0185,-0.0112,-0.0109,-0.0105,0,0,0,0,0,0,0,0,0,0,0,0,0,-0.0325,-0.0382,-0.0264,-0.0249,-0.0247,-0.0195,-0.0194,-0.0193,-0.0183,-0.0184,-0.0185,-0.0186,-0.0113,-0.0109,-0.0105,-0.0062,0,0,-0.0093,-0.0092,0,0,0,0,0,0,0,0,-0.0329,-0.0321,-0.0252,-0.025,-0.0248,-0.0199,-0.0209,-0.0149,-0.0183,-0.0207,-0.0185,-0.0186,-0.0139,-0.0133,-0.0118,-0.0059,-0.0055,-0.0093,-0.0091,-0.0089,-0.0088,0,0,0,0,0,0,0,-0.0333,-0.0324,-0.0236,-0.0251,-0.0248,-0.0245,-0.0238,-0.0198,-0.0168,-0.0205,-0.0204,-0.0196,-0.0138,-0.0122,-0.0116,-0.0054,-0.0093,-0.009,-0.0087,-0.0086,0.0043,0.0044,0,0,0,0,0,0,-0.034,-0.0327,-0.0239,-0.0234,-0.0292,-0.0242,-0.0234,-0.0213,-0.0169,-0.0163,-0.0196,-0.0196,-0.0128,-0.0121,-0.0113,-0.0061,-0.0089,-0.0085,-0.0083,0.0042,0.0043,0.0044,0,0,0,0,0,0,-0.0343,-0.0332,-0.0241,-0.0281,-0.0269,-0.0239,-0.0216,-0.0211,-0.0195,-0.0162,-0.0156,-0.0184,-0.0128,-0.0119,-0.0075,-0.0058,-0.0084,-0.008,0.0041,0.0042,0.0044,0.0046,0,0,0,0,0,0,-0.0346,-0.0333,-0.0317,-0.028,-0.0267,-0.0205,-0.0215,-0.0209,-0.0189,-0.0189,-0.015,-0.0144,-0.0128,-0.0081,-0.0071,-0.0053,-0.0077,0.0039,0.0041,0.0043,0.0044,0.0047,0.005,0,0,0,0,0,-0.035,-0.0318,-0.0316,-0.0306,-0.0246,-0.0204,-0.0196,-0.018,-0.0188,-0.0171,-0.015,-0.0145,-0.0061,-0.0077,-0.0066,-0.0046,0.0038,0.0041,0.0043,0.0043,0.0047,0.005,0,0,0,0,0,0,-0.0352,-0.0313,-0.0311,-0.0266,-0.0239,-0.0203,-0.0181,-0.0176,-0.0145,-0.0146,-0.0126,-0.0117,-0.0075,-0.0056,-0.0074,-0.0002,-0.0012,-0.0007,-0.0016,-0.0012,-0.001,-0.0015,-0.0074,0,0,0,0,0,-0.0348,-0.0318,-0.0285,-0.0249,-0.0236,-0.0211,-0.0192,-0.0182,-0.0152,-0.014,-0.0115,-0.0086,-0.0053,-0.0032,0.0001,0.0047,0.0055,0.0066,0.0069,0.0071,0.0075,0.01,0.0105,0.0053,0.0053,0.0053,0,0,-0.0338,-0.0313,-0.0295,-0.0249,-0.0226,-0.0195,-0.0201,-0.0168,-0.0144,-0.0135,-0.0092,-0.0073,-0.0039,0.0005,0.0026,0.0023,0.0091,0.0074,0.0075,0.0078,0.0103,0.0108,0.0112,0.0054,0.0054,0.0054,0,0,-0.0303,-0.0282,-0.0249,-0.0227,-0.0194,-0.0178,-0.017,-0.0135,-0.0123,-0.0081,-0.0073,-0.0044,0.0012,0.0036,0.0055,0.0097,0.0102,0.0107,0.0122,0.0146,0.015,0.0154,0.0169,0.0174,0.0111,0.0111,0.0111,0,-0.0295,-0.0249,-0.0233,-0.0201,-0.018,-0.0172,-0.0139,-0.0118,-0.0075,-0.0061,-0.0067,0.0004,0.0027,0.0078,0.0087,0.0103,0.0113,0.0103,0.0148,0.0152,0.0156,0.017,0.0176,0.0111,0.0111,0.0111,0.0111,0,-0.024,-0.0208,-0.0186,-0.0147,-0.0124,-0.0091,-0.007,-0.0049,-0.0041,-0.0024,0.0019,0.0047,0.0085,0.0098,0.0107,0.0149,0.0146,0.0144,0.0135,0.0161,0.0175,0.0181,0.0112,0.0112,0.0112,0.0112,0,0,-0.0204,-0.0158,-0.015,-0.0132,-0.0095,-0.007,-0.0037,-0.0001,0.0016,0.0045,0.0074,0.0121,0.0119,0.0141,0.0153,0.0174,0.0205,0.017,0.0171,0.0175,0.0253,0.0254,0.026,0.0208,0.0209,0.021,0.025,0,-0.0165,-0.0107,-0.0093,-0.0043,-0.0013,-0.0005,0.0024,0.005,0.0066,0.0094,0.0113,0.0145,0.0141,0.0154,0.0176,0.0197,0.0221,0.0194,0.0236,0.0237,0.0227,0.0268,0.0269,0.0305,0.0256,0.0257,0.0257,0,-0.0113,-0.0084,-0.0032,0.0,0.0013,0.0039,0.0072,0.0099,0.0128,0.0139,0.0162,0.0172,0.0207,0.0195,0.0244,0.0225,0.0243,0.0256,0.0258,0.0263,0.0249,0.0273,0.0318,0.0323,0.0266,0.0265,0.0265,0,-0.0092,-0.0041,-0.0003,0.0012,0.005,0.0068,0.0085,0.0114,0.0134,0.0163,0.0177,0.021,0.0229,0.0255,0.0273,0.0263,0.032,0.031,0.0331,0.033,0.0343,0.0342,0.039,0.0354,0.0354,0.0354,0.0354,0,-0.0051,-0.0019,0.0007,0.003,0.0066,0.0082,0.0117,0.0135,0.016,0.0187,0.0197,0.0222,0.0245,0.0273,0.0288,0.0326,0.0335,0.0344,0.0348,0.0344,0.0342,0.0356,0.0354,0.0355,0.0355,0.0355,0.0354,0,-0.0022,-0.0003,0.0038,0.0071,0.008,0.0105,0.0133,0.0156,0.0172,0.0206,0.0216,0.0241,0.0276,0.0296,0.034,0.0349,0.0392,0.0394,0.0381,0.0383,0.0402,0.04,0.0461,0.047,0.0427,0.0428,0.0428,0,0.0004,0.0028,0.0062,0.0081,0.0097,0.0127,0.0147,0.0164,0.0185,0.022,0.0239,0.0274,0.0302,0.0356,0.038,0.0413,0.0416,0.0435,0.0422,0.0416,0.0417,0.0415,0.0417,0.0438,0.0438,0.0439,0.0439,0,0.0046,0.0054,0.0082,0.0113,0.0136,0.0162,0.0188,0.0203,0.0224,0.0247,0.0281,0.0303,0.0347,0.0381,0.0416,0.0435,0.0441,0.0443,0.0449,0.0445,0.0437,0.0441,0.0388,0.0442,0.0441,0.0441,0.0441,0.0441,0.0074,0.0096,0.0123,0.0154,0.0175,0.0198,0.0221,0.024,0.0268,0.0304,0.0313,0.0349,0.0378,0.0425,0.0444,0.0473,0.047,0.048,0.0482,0.0484,0.0484,0.0432,0.048,0.048,0.048,0.048,0.0479,0,0.0117,0.0135,0.0163,0.0198,0.0222,0.0224,0.0252,0.0273,0.0304,0.033,0.0357,0.0396,0.0429,0.0454,0.0488,0.0506,0.051,0.0515,0.0514,0.0518,0.0485,0.0476,0.0511,0.0511,0.0511,0.0511,0.0511,0.0511,0.0142,0.0179,0.019,0.0237,0.0255,0.0289,0.0305,0.0327,0.0347,0.039,0.0417,0.0432,0.0458,0.0494,0.0524,0.0531,0.0543,0.0547,0.0554,0.0523,0.052,0.0517,0.0508,0.0549,0.0549,0.0584,0.0584,0.0585]}]]